Flag for Netherlands Weather past 2 weeks in Kralendijk (Bonaire), Netherlands

Now
82 °F

Warm.


Feels Like: 91 °F
Forecast: 82 / 90 °F
Wind: 12 mph from East

Location: Flamingo Airport - Bonaire

Current Time: Sep 15, 2014 at 11:54:45 PM

Latest Report: Sep 15, 2014 at 10:00 PM


Visibility: N/A

Pressure: 29.95 "Hg

Humidity: 84%

Dew point: 77 °F

Location of Kralendijk (Bonaire)Location

Historic Weather in Kralendijk (Bonaire) — Graph

°F

Kralendijk (Bonaire) temperature yesterday

Maximum temperature yesterday: 90 °F (at 11:00 AM)
Minimum temperature yesterday: 82 °F (at 12:00 AM)
Average temperature yesterday: 85 °F

Past Weeks' High & Low Weather Summary

 TemperatureHumidityPressure
High91 °F (Sep 3, 1:00 PM)89% (Sep 2, 12:55 AM)29.98 "Hg (Sep 2, 12:55 AM)
Low81 °F (Sep 2, 12:55 AM)59% (Sep 10, 2:00 PM)29.80 "Hg (Sep 2, 4:00 PM)
Average85 °F74%29.88 "Hg
* Reported Midnight between Aug 31 and Sep 1 — Sep 15 10:00 PM, Kralendijk (Bonaire), Weather by CustomWeather, © 2014

Note: Actual official high and low records may vary slightly from our data, if they occured in-between our weather recording intervals... More about our weather records

Advertising

Kralendijk (Bonaire) weather history for previous 24 hours

 ConditionsComfort  
Time TempWeatherWind HumidityBarometerVisibility
10:00 PM
Sep 15
82 °FWarm.12 mph84%29.95 "HgN/A
9:00 PM82 °FWarm.12 mph84%29.92 "HgN/A
8:00 PM84 °FWarm.13 mph79%29.92 "HgN/A
7:00 PM84 °FWarm.12 mph79%29.89 "HgN/A
6:00 PM86 °FScattered clouds.14 mph70%29.89 "HgN/A
5:00 PM88 °FScattered clouds.14 mph66%29.86 "HgN/A
4:00 PM86 °FScattered clouds.14 mph70%29.86 "HgN/A
3:00 PM88 °FWarm.12 mph66%29.89 "HgN/A
2:00 PM90 °FHot.14 mph67%29.92 "HgN/A
1:00 PM90 °FPartly sunny.13 mph67%29.92 "HgN/A
12:00 PM90 °FPartly sunny.13 mph67%29.95 "HgN/A
10:00 AM88 °FScattered clouds.15 mph70%29.98 "HgN/A
9:00 AM86 °FScattered clouds.16 mph75%29.95 "HgN/A
8:00 AM84 °FWarm.16 mph79%29.95 "HgN/A
7:00 AM82 °FWarm.13 mph84%29.89 "HgN/A
6:00 AM82 °FWarm.13 mph79%29.89 "HgN/A
2:00 AM82 °FWarm.15 mph79%29.92 "HgN/A
1:00 AM82 °FWarm.15 mph79%29.92 "HgN/A
12:00 AM82 °FWarm.14 mph79%29.95 "HgN/A
11:00 PM
Sep 14
82 °FWarm.15 mph79%29.95 "HgN/A
Weather by CustomWeather, © 2014

See weather overviewHow to use our weather pages